ATLAS 5 CENTAUR DEB, 44645

Orbit data source: Space-Track

ATLAS 5 CENTAUR DEB, 44645 is space debris in HEO originally from a launch on Wed, 17 Oct 2018 UTC launched from the Air Force Eastern Test Range (AFETR). Debris objects in space refer to the collection of defunct objects orbiting the Earth. Examples of debris include non-operational satellites, rocket bodies, and fragments generated from explosions, collisions, or faulty payload assembly.

Loading next visibility...
Identifier
44645, 2018-079F
Orbit
HEO
Country
Flag of USUS
Related business
Flag of USUnited Launch Alliance/Lockheed Martin (US)
Manufacturer
ULA Decatur
Mission
Spacecraft
Bus & Motor
Unknown
Mass
Unknown
Launch date (UTC)
2018-10-17 (8 years ago)
Launch vehicle
Unknown
Launch site
Air Force Eastern Test Range (AFETR)
Object type
Payload
Rocket body
Debris
Shape & HBR
Unknown shape, 1.1 m
Radar Cross Section
Medium (>0.1 m² and <1 m²)

Expand to show TLE details & history
Last TLE update: 2 days ago

TLE from 2 days ago
0 ATLAS 5 CENTAUR DEB
1 44645U 18079F   26170.99002227 -.00000126  00000-0  00000+0 0  9994
2 44645  13.4511  15.5420 4645802 356.9431   1.0326  1.89809585 53099
Epoch: 2026-06-19T23:45Z
TLE epoch observation values (Epoch: 2026-06-19T23:45:37.924Z)
Latitude
0.00009°
Longitude
110.92445°
Altitude
8,405.872 km
Speed
6.281 km/s
True Right ascension
01h 02m 10s
True Declination
0° 00' 00"
Sunlit
Object was in daylight at epoch
Visualization orbit readout
Latitude
Unknown
Longitude
Unknown
Altitude
Unknown
Speed
Unknown
Apparent Right ascension
Unknown
Apparent Declination
Unknown
Sunlit
N/A
Visualization observer readout
Local Sidereal Time
21:36:55
Azimuth
Unknown
Elevation
Unknown
Doppler factor
Unknown
Orbital elements
Apogee altitude
33,980.502 km
Perigee altitude
8,376.135 km
Semi-major axis
27,556.455 km
Eccentricity
0.46458
Inclination
13.4511°
RAAN
15.542°
Arg. of periapsis
356.9431°
True anomaly
3.18864°
Mean anomaly
1.0326°
Eccentric anomaly
1.92826°
Mean motion
0.47447 °/min
Orbital period
758.74 mins
BSTAR
0
Loading maneuver chart data...
Computing Atmospheric mass density...

Documentation

Showing up to 5 results
|